Location: Cosy Dell
(34.2789°N, 117.4537°W)
Time: 21:14:11
(UTC+00:00)

Cosmos 1763 Rocket - Pass Details

Date: 14 July 2020
Orbit: 732 x 781 km, 74.0° (Epoch: 13 August)

Event Time Altitude Azimuth Distance (km) Brightness Sun altitude
Rises 10:45:48 0° 348° (NNW) 3,244 7.2 -21.1°
Reaches altitude 10° 10:48:14 10° 353° (N) 2,320 6.5 -20.7°
Maximum altitude 10:53:24 54° 70° (ENE) 940 4.2 -20.0°
Drops below altitude 10° 10:58:34 10° 148° (SSE) 2,324 5.9 -19.3°
Sets 11:01:00 0° 153° (SSE) 3,249 6.6 -18.9°
